P/2016 S1 ( PanSTARRS )

Japanese version
Home page
Updated on December 31, 2016

---------------------------------------------------------------------

* Profile

Discovery Date September 21, 2016
Magnitude 19.4 mag
Discoverer Pan-STARRS 1 telescope (Haleakala)

* Pictures

* Orbital Elements

Epoch 2017 Mar. 28.0 TT = JDT 2457840.5
T 2017 Mar. 16.83349 TT                                 MPCW
q   2.4118565            (2000.0)            P               Q
n   0.04137369     Peri.  273.61743     +0.01760379     -0.67754456
a   8.2791653      Node   227.53933     +0.30240986     -0.69733377
e   0.7086836      Incl.   94.68975     -0.95301542     -0.23379261
P  23.82
From 82 observations 2016 Sept. 21-Nov. 9, mean residual 0".4.

* Finding Charts

* Magnitudes Graph

        m1 = 11.5 + 5 log d + 10.0 log r

---------------------------------------------------------------------

The orbital elements are published on M.P.E.C. 2016-V116.
The charts are made with StellaNavigator Ver.10 (AstroArts).
The magnitudes graphs are made with Comet for Windows.

---------------------------------------------------------------------

Copyright(C) Seiichi Yoshida (comet@aerith.net). All rights reserved.